User: anonymous   Login
Location: Prairie State College
(41.5244°N, 87.6382°W)
Time: 15:39:05
(UTC-05:00)
Language:

Cosmos 1943 - Orbit

View from above orbital plane
View from above orbital plane
View from above satellite
View from above satellite

Ground track
Ground track

The orbit data is extracted from the following two-line orbital elements,

1 19119U 88039A   14298.11485296 -.00000133  00000-0 -44214-4 0  2787
2 19119 071.0041 330.3668 0008930 082.8866 339.3787 14.14959911365438
Epoch (UTC): 25 October 2014 02:45:23
Eccentricity: 0.0008930
inclination: 71.0041°
perigee height: 836 km
apogee height: 849 km
right ascension of ascending node: 330.3668°
argument of perigee: 82.8866°
revolutions per day: 14.14959911
mean anomaly at epoch: 339.3787°
orbit number at epoch: 36543

The dashed part of the orbit path shows where the satellite is in the earth's shadow,  

DLR